PulseSat

PulseSat

GSAT0209 (PRN E09)

Last updated on March 21, 2019, 3:13 a.m. UTC

1 41174U 15079A   19078.37279157 -.00000012  00000-0  00000-0 0  9999
2 41174  54.9373 174.0396 0004575 301.9446  58.0225  1.70473905 19826
UTC
Height (km)
Latitude
Longitude
Inclination
Orbital Period

Next 30 passes for location: Hong Kong

Rise time Rise Azimuth (degrees) Set time Set Azimuth (degrees) Duration Max altitude (degrees)

No matching passes for this satellites

PulseSat

PulseSat is the new satellites software and hardware trackering solution by Pulsely.
Satellite Two Line Element Set source: US Air Force Space Command

Download PulseSat for iOS
© 2017 Pulsely Limited